Погода в Красном Пламени

Россия / Владимирская область     56°33′40″N   38°32′23″E
темп.,
°C
ветер,
м/с
пор.,
м/с
влажн.,
%
обл.,
%
осадки,
мм/ч
давл.,
гПа
погр.,
м
5 августа, чт
чт500:00+14зсз116989 0.0 101710
03:00+13ю117819 0.0 101711
06:00+14ю1176100 0.0 101728
09:00+17ю1263100 0.0 1017291
12:00+22ю2447100 0.0 10171348
15:00+23ю4539100 0.0 10152080
18:00+15юз2492100 1.3 1016132
21:00+14в279884 3.2 1015237
6 августа, пт
пт600:00+13юв289879 0.1 1014192
03:00+13юв2797100 0.8 1013182
06:00+14ююв2596100 0.9 1013161
09:00+16ю3589100 1.1 1012352
12:00+17ююз2495100 0.4 1013318
15:00+16юв2499100 8.6 1013331
18:00+16вюв2399100 4.9 1012150
21:00+15вюв2699100 5.5 1012168
7 августа, сб
сб700:00+15в41197100 0.1 1012324
03:00+15в5139697 0.2 1010432
06:00+15вюв4998100 0.4 1011321
09:00+19юв468743 0.5 1011444
12:00+25юв456396 0.0 1010872
15:00+24ююв486796 0.0 1010720
18:00+21ююв41178100 0.0 1010376
21:00+22вюв4117698 0.0 1010290
8 августа, вс
вс800:00+18ю258695 0.0 101089
03:00+17ююз3996100 0.4 1011186
06:00+17зюз2598100 0.1 1011183
09:00+18зюз3591100 0.5 1012475
12:00+19з248064 2.7 1013685
15:00+24зюз35440 2.7 10121652
18:00+23з465585 0.0 10131026
21:00+17з227889 0.0 101547
9 августа, пн
пн900:00+17з287599 0.0 1015308
03:00+14з279081 0.0 1015158
06:00+14з27908 0.0 1015204
09:00+20зсз35687 0.0 1016683
12:00+23зсз35528 0.0 10151553
15:00+25зсз34454 0.0 10151807
18:00+24сз23555 0.0 1014247
21:00+18сз11736 0.0 101511